Regional Weather Roundup
Issued by NWS

Home | Current Version | Previous Version | Graphics & Text | Print | Product List | Glossary Off
Versions: 1 2 3 4 5 6 7 8 9 10 11 12 13 14 15 16 17 18 19 20 21 22 23 24 25 26 27 28 29 30 31 32 33 34 35 36 37 38 39 40 41 42 43 44 45 46 47 48 49 50

000
ASUS43 KMKX 261811
RWRWI

WISCONSIN REGIONAL WEATHER ROUNDUP
NATIONAL WEATHER SERVICE MILWAUKEE/SULLIVAN WI
100 PM CDT FRI MAY 26 2017

NOTE: "FAIR" INDICATES FEW OR NO CLOUDS BELOW 12,000 FEET WITH NO
SIGNIFICANT WEATHER AND/OR OBSTRUCTIONS TO VISIBILITY.

WIZ001-002-006>008-014>016-023>028-261900-
NORTHWEST WISCONSIN

CITY           SKY/WX    TMP DP  RH WIND       PRES   REMARKS
SUPERIOR ARPT  NOT AVBL
ASHLAND        CLOUDY    52  49  89 N5        29.76S
6HR MIN TEMP:  51; 6HR MAX TEMP:  61; 6HR PCP: TRACE;

HAYWARD        CLOUDY    70  51  51 SW13      29.76S
6HR MIN TEMP:  60; 6HR MAX TEMP:  70;

SIREN          PTSUNNY   72  54  53 S15G21    29.73F
6HR MIN TEMP:  60; 6HR MAX TEMP:  72;

CUMBERLAND     CLOUDY    64  54  68 S10       29.77S
RICE LAKE      CLOUDY    69  53  57 S9        29.78S
6HR MIN TEMP:  59; 6HR MAX TEMP:  70;

CHETEK         CLOUDY    68  55  62 S8        29.77S
6HR MIN TEMP:  58; 6HR MAX TEMP:  69;

LADYSMITH      CLOUDY    68  55  62 S9        29.80R
6HR MIN TEMP:  58; 6HR MAX TEMP:  68;

EAU CLAIRE     CLOUDY    71  52  50 S9        29.77R
6HR MIN TEMP:  60; 6HR MAX TEMP:  73;

MENOMONIE      CLOUDY    70  53  54 S9        29.77R
6HR MIN TEMP:  59; 6HR MAX TEMP:  72; 6HR PCP:  0.01;

NEW RICHMOND   CLOUDY    67  55  64 S9        29.76F
6HR MIN TEMP:  60; 6HR MAX TEMP:  67;

OSCEOLA        MOSUNNY   71  56  60 S12       29.77S
6HR MIN TEMP:  61; 6HR MAX TEMP:  71;

$$

WIZ003>005-009-010-017-018-261900-
NORTH CENTRAL WISCONSIN

CITY           SKY/WX    TMP DP  RH WIND       PRES   REMARKS
MANITOWISH WTR CLOUDY    66  54  65 SE10      29.80F
6HR MIN TEMP:  54; 6HR MAX TEMP:  66;

ARBOR VITAE    MOSUNNY   64  54  68 S8        29.81S
6HR MIN TEMP:  57; 6HR MAX TEMP:  65;

WOODRUFF       MOSUNNY   64  54  68 S8        29.81S
6HR MIN TEMP:  57; 6HR MAX TEMP:  65;

RHINELANDER    CLOUDY    69  54  58 S6        29.82F
6HR MIN TEMP:  56; 6HR MAX TEMP:  69;

EAGLE RIVER    CLOUDY    64  52  63 S5        29.82S
6HR MIN TEMP:  53; 6HR MAX TEMP:  65;

LAND O LAKES   CLOUDY    69  51  51 S7        29.83S
6HR MIN TEMP:  52; 6HR MAX TEMP:  69;

PHILLIPS       RAIN      65  55  68 SE7       29.79S
6HR MIN TEMP:  56; 6HR MAX TEMP:  68;

TOMAHAWK       CLOUDY    67  55  65 S3        29.82S
6HR MIN TEMP:  54; 6HR MAX TEMP:  67;

MEDFORD        CLOUDY    67  56  68 S12       29.81S
6HR MIN TEMP:  55; 6HR MAX TEMP:  68;

MERRILL        PTSUNNY   67  54  64 S6        29.82S
6HR MIN TEMP:  55; 6HR MAX TEMP:  69;

$$

WIZ029-030-035-036-043>047-261900-
CENTRAL WISCONSIN

CITY           SKY/WX    TMP DP  RH WIND       PRES   REMARKS
WAUSAU         CLOUDY    68  55  63 S8        29.81S
6HR MIN TEMP:  55; 6HR MAX TEMP:  69;

MOSINEE        CLOUDY    66  57  72 S6        29.84R
MARSHFIELD     CLOUDY    69  54  58 S8        29.80S
6HR MIN TEMP:  57; 6HR MAX TEMP:  71;

STEVENS POINT  CLOUDY    67  55  64 SE8       29.82F
6HR MIN TEMP:  55; 6HR MAX TEMP:  67;

WAUPACA        PTSUNNY   71  57  61 S8        29.83S
6HR MIN TEMP:  57; 6HR MAX TEMP:  71;

WAUTOMA        MOSUNNY   70  55  59 SE10      29.81F
6HR MIN TEMP:  55; 6HR MAX TEMP:  71;

WISC RAPIDS    CLOUDY    71  55  56 SE8       29.81F
6HR MIN TEMP:  56; 6HR MAX TEMP:  73;

CAMP DOUGLAS   CLOUDY    70  55  60 S9        29.80R
$$

WIZ011>013-019>022-031-037>040-048>050-261900-
NORTHEAST WISCONSIN

CITY           SKY/WX    TMP DP  RH WIND       PRES   REMARKS
ANTIGO         CLOUDY    66  55  68 S7        29.83S
6HR MIN TEMP:  53; 6HR MAX TEMP:  67;

SHAWANO        PTSUNNY   72  57  60 S5        29.82F
6HR MIN TEMP:  55; 6HR MAX TEMP:  73;

OCONTO         MOSUNNY   67  54  61 S6        29.83F
6HR MIN TEMP:  53; 6HR MAX TEMP:  67;

STURGEON BAY   MOSUNNY   64  53  67 SE12      29.85F
6HR MIN TEMP:  53; 6HR MAX TEMP:  66;

GREEN BAY      PTSUNNY   69  58  67 S5        29.83S
6HR MIN TEMP:  53; 6HR MAX TEMP:  70; 6HR PCP: TRACE;

MANITOWOC      CLOUDY    61  52  72 SE9       29.86F
6HR MIN TEMP:  53; 6HR MAX TEMP:  61;

APPLETON       PTSUNNY   66  52  59 SE8       29.82F
CLINTONVILLE   PTSUNNY   70  52  52 S7        29.82F
OSHKOSH        CLOUDY    68  55  63 SE10      29.82S
6HR MIN TEMP:  57; 6HR MAX TEMP:  69;

$$

WIZ032>034-041-042-053>061-261900-
SOUTHWEST WISCONSIN

CITY           SKY/WX    TMP DP  RH WIND       PRES   REMARKS
LA CROSSE      CLOUDY    70  55  59 S12       29.79R
6HR MIN TEMP:  59; 6HR MAX TEMP:  72;

SPARTA         CLOUDY    71  55  58 S7        29.81R
6HR MIN TEMP:  54; 6HR MAX TEMP:  72; 6HR PCP:  0.01;

VIROQUA        CLOUDY    67  56  67 MISG      29.82R
6HR MIN TEMP:  55; 6HR MAX TEMP:  68;

BOSCOBEL       CLOUDY    67  57  70 CALM      29.82R
6HR MIN TEMP:  56; 6HR MAX TEMP:  69; 6HR PCP: TRACE;

PRAIRIE DU CHI CLOUDY    65  56  72 E7        29.81R
6HR MIN TEMP:  56; 6HR MAX TEMP:  66;

PLATTEVILLE    CLOUDY    61  60  99 SE5       29.84R
6HR MIN TEMP:  58; 6HR MAX TEMP:  65; 6HR PCP:  0.11;

$$

WIZ056-057-062-063-064-067-068-261900-
SOUTH CENTRAL WISCONSIN

CITY           SKY/WX    TMP DP  RH WIND       PRES   REMARKS
REEDSBURG      CLOUDY    67  57  68 SE5       29.80S
6HR MIN TEMP:  55; 6HR MAX TEMP:  70;

BARABOO/DELLS  CLOUDY    66  53  63 S10       29.80S
6HR MIN TEMP:  56; 6HR MAX TEMP:  69;

LONE ROCK      CLOUDY    67  56  67 SE7       29.81R
6HR MIN TEMP:  56; 6HR MAX TEMP:  69;

MINERAL POINT  LGT RAIN  64  61  88 S6        29.84R
MADISON        CLOUDY    68  56  65 SE12      29.81R
6HR MIN TEMP:  55; 6HR MAX TEMP:  69;

MIDDLETON      CLOUDY    68  55  61 S9        29.82R
6HR MIN TEMP:  55; 6HR MAX TEMP:  70;

WATERTOWN      CLOUDY    67  56  68 SE8       29.82S
6HR MIN TEMP:  55; 6HR MAX TEMP:  69;

MONROE         LGT RAIN  64  55  72 SE9       29.82R
JANESVILLE     PTSUNNY   70  57  64 E13       29.81R
$$

WIZ051-052-058>065-066-070>072-261900-
SOUTHEAST WISCONSIN

CITY           SKY/WX    TMP DP  RH WIND       PRES   REMARKS
MILWAUKEE      CLOUDY    58  53  84 SE7       29.85F
6HR MIN TEMP:  55; 6HR MAX TEMP:  61;

WAUKESHA       SUNNY     63  54  72 SE13      29.85S
MILWAUKEE/TIMM SUNNY     63  48  59 E10       29.84F
RACINE         CLOUDY    55  49  80 E5        29.87R
6HR MIN TEMP:  55; 6HR MAX TEMP:  61;

KENOSHA        CLOUDY    59  51  75 E8        29.85R
6HR MIN TEMP:  55; 6HR MAX TEMP:  63;

FOND DU LAC    CLOUDY    70  55  59 E9        29.82F
6HR MIN TEMP:  57; 6HR MAX TEMP:  71; 6HR PCP: TRACE;

SHEBOYGAN      CLOUDY    61  54  77 SE7       29.85F
6HR MIN TEMP:  51; 6HR MAX TEMP:  63;

WEST BEND      MOSUNNY   64  54  68 SE6       29.84F
JUNEAU         CLOUDY    67  57  69 SE9       29.83S
6HR MIN TEMP:  55; 6HR MAX TEMP:  68;

$$

LSZ147-162-261900-
LAKE SUPERIOR

STATION/POSITION TIME  TEMP    WIND        PRES    WAVE
                       AIR SEA DIR/SP/G            HT/PER
                 (UTC) (F)     (DEG/KT/KT) (MB)    (FT/S)
W MID LAKE BUOY  1650   44 37  110/  8/  8 1008.7F   0
DEVILS ISLAND    1700   44      30/  4/  5 1008.8R
PORT WING        1730   46      40/  6/  6 1007.1F
SAXON HARBOR     1740   51      CALM  /  2 1007.8S
$$

LMZ867-665-643>646-261900-
LAKE MICHIGAN

STATION/POSITION TIME  TEMP    WIND        PRES    WAVE
                       AIR SEA DIR/SP/G            HT/PER
                 (UTC) (F)     (DEG/KT/KT) (MB)    (FT/S)
CHAMBERS ISLAND  1740   60     320/  6/  7 1010.2F
N MID LAKE BUOY  1650   45 43  200/  8/  8 1012.0S   0
NORTHPORT PIER   1740



USA.gov is the U.S. government's official web portal to all federal, state and local government web resources and services.